SCP
0 -0 -0 0 0 -0 -0 0 -0 -0 -0 0 -0 -0 0 0 0 0 0 0 0 0 0 -0 0 0 0 0 0 -0 -0 -0 -0 0 -0 -0 -0 -0 -0 -0 -0 -0 -0
0 -0 0 0 0 0 -0 -0 -0 -0 0 -0 -0 -0 -0 0 0 0 0 0 0 0 0 -0 -0 -0 0 -0 -0 -0 -0 -0 -0 -0 -0 -0 -0 -0 -0 -0 -0 -0 -0
0 -0 0 -0 -0 -0 -0 -0 -0 0 0 -0 -0 0 0 0 0 0 0 0 0 0 -0 -0 -0 -0 -0 -0 -0 0 -0 -0 -0 -0 -0 -0 0 -0 -0 -0 -0 -0 -0
0 0 0 -0 -0 -0 -0 -0 -0 -0 -0 0 0 -0 0 0 0 0 0 0 0 0 0 0 -0 0 0 0 0 0 -0 0 0 0 0 0 0 -0 -0 -0 -0 -0 -0
0 0 0 -0 -0 -0 0 -0 0 0 -0 0 -0 -0 0 0 0 0 0 0 0 0 0 0 0 0 0 0 0 0 0 0 -0 0 0 0 0 -0 -0 -0 -0 -0 0
-0 0 0 -0 -0 -0 -0 -0 0 0 0 0 0 0 0 0 0 0 0 0 0 0 0 0 0 0 0 0 0 0 -0 -0 0 0 0 0 0 -0 -0 -0 0 0 0
-0 -0 -0 -0 -0 -0 -0 -0 0 0 0 0 0 0 0 0 0 0 0 0 0 -0 0 0 0 0 0 0 -0 -0 -0 -0 -0 -0 0 0 0 -0 -0 -0 0 0 0
-0 -0 -0 -0 -0 -0 -0 -0 -0 -0 0 0 0 0 0 0 0 0 0 0 0 -0 0 0 0 0 0 -0 -0 -0 -0 -0 -0 -0 0 0 0 0 -0 -0 0 0 0
-0 -0 0 0 -0 -0 -0 -0 0 0 0 0 0 0 0 0 0 0 0 0 0 -0 -0 -0 -0 0 -0 -0 -0 -0 -0 -0 0 0 -0 0 0 0 -0 -0 -0 0 0
-0 -0 0 0 0 -0 -0 -0 0 0 0 0 0 0 0 0 0 0 0 0 0 0 0 0 -0 -0 -0 -0 -0 -0 -0 -0 0 0 0 0 0 0 -0 -0 -0 0 0
-0 -0 0 0 0 0 0 0 0 0 0 0 0 0 0 0 0 0 0 0 0 -0 -0 -0 -0 -0 -0 -0 -0 -0 -0 0 0 0 0 0 0 0 0 0 0 0 0
-0 0 0 0 0 0 0 0 0 0 -0 -0 -0 0 0 0 0 0 0 0 0 0 -0 -0 0 -0 0 0 0 0 0 0 0 0 0 0 0 0 0 0 0 0 0
-0 -0 0 0 0 0 0 0 -0 -0 -0 -0 -0 -0 0 0 0 0 0 -0 -0 -0 -0 -0 -0 0 0 0 0 0 0 0 0 0 0 0 0 0 0 0 0 0 0
-0 -0 0 0 0 0 -0 -0 -0 -0 -0 0 0 0 0 0 -0 0 0 0 -0 -0 -0 0 0 0 0 0 0 0 0 0 0 0 0 0 0 0 0 0 0 0 0
-0 -0 -0 -0 -0 -0 -0 -0 -0 -0 0 0 0 0 0 0 0 0 0 0 0 0 0 0 0 0 0 0 0 0 0 0 0 0 0 0 0 0 0 0 0 0 0
-0 -0 0 0 0 0 0 0 0 0 0 0 0 0 -0 0 0 0 0 0 0 0 0 0 0 0 0 0 0 0 0 0 0 0 0 0 0 0 0 0 0 0 0
0 0 0 0 0 0 0 0 0 0 0 0 0 0 0 0 0 0 0 0 0 0 0 0 0 0 0 0 0 0 0 0 0 0 0 0 0 0 0 0 0 0 0
0 0 0 0 0 0 0 0 0 0 0 0 0 0 0 0 0 0 0 0 0 0 0 0 0 0 0 0 0 0 0 0 0 0 0 0 0 0 0 0 0 0 0
0 0 0 0 0 0 0 0 0 0 0 0 0 0 0 0 0 0 0 0 0 0 0 0 0 0 0 0 0 0 0 0 0 0 0 0 0 0 0 0 0 0 0
0 0 0 0 0 0 0 0 0 0 0 0 0 0 0 0 0 0 0 0 0 0 0 0 0 0 0 0 0 0 0 0 0 0 0 0 0 0 0 0 0 0 0
0 0 0 0 0 0 0 0 0 0 0 0 0 0 0 0 0 0 0 0 0 0 0 0 0 0 0 0 0 0 0 0 0 0 0 0 0 0 0 0 0 0 0
0 0 0 0 0 0 0 0 0 0 0 0 0 0 0 0 0 0 0 0 0 0 0 0 0 0 0 0 0 0 0 0 0 0 0 0 0 0 0 0 0 0 0
0 0 0 0 0 0 0 0 0 0 0 0 0 0 0 0 0 0 0 0 0 0 0 0 0 0 0 0 0 0 0 0 0 0 0 0 0 0 0 0 0 0 0
0 0 0 0 0 0 0 0 0 0 0 0 0 0 0 0 0 0 0 0 0 0 0 0 0 0 0 0 0 0 0 0 0 0 0 0 0 0 0 0 0 0 0
0 0 0 0 0 0 0 0 0 0 0 0 0 0 0 0 0 0 0 0 0 0 0 0 0 0 0 0 0 0 0 0 0 0 0 0 0 0 0 0 0 0 0
0 0 0 0 0 0 0 0 0 0 0 0 0 0 0 0 0 0 0 0 0 0 0 0 0 0 0 0 0 0 0 0 0 0 0 0 0 0 0 0 0 0 0
Wind_Speed_500mb
44 39 30 27 27 30 34 31 30 28 29 27 30 26 30 34 35 40 39 33 28 27 27 27 25 27 29 27 27 28 28 29 27 25 21 20 20 21 24 22 22 21 21
47 39 32 30 35 37 36 33 32 28 27 26 25 28 29 28 28 27 27 27 25 23 28 30 30 31 32 34 31 30 32 33 35 31 29 26 23 20 19 19 18 17 18
50 41 38 38 42 40 37 35 31 27 25 25 25 24 28 27 25 26 22 23 23 25 33 34 35 35 36 35 34 36 34 33 29 29 28 28 25 18 16 17 16 15 15
49 45 44 44 46 42 37 34 31 28 26 25 29 25 24 22 25 25 22 22 26 30 34 35 38 39 40 42 40 35 31 26 22 21 23 24 27 21 16 17 16 13 10
52 48 48 48 47 44 37 33 32 31 28 28 28 27 25 27 24 23 24 23 31 35 36 37 38 40 41 37 33 30 28 22 15 16 22 21 26 22 17 16 14 12 10
55 51 49 47 46 42 36 33 31 31 30 28 28 28 25 30 31 27 27 30 34 34 35 36 37 35 35 32 29 26 20 17 6 12 18 21 26 23 21 19 17 17 17
59 55 50 45 42 41 37 33 31 31 32 31 30 28 27 27 27 28 29 32 33 33 32 31 31 31 31 29 25 19 17 17 9 3 7 9 16 21 27 27 24 20 18
59 56 52 46 41 37 35 33 31 30 31 32 32 32 30 28 28 27 27 29 30 28 26 26 26 25 25 22 17 15 13 13 21 20 10 6 8 12 24 30 27 25 22
52 52 49 46 42 38 34 31 30 29 30 31 32 32 31 30 29 26 24 23 22 21 19 19 18 18 19 18 17 14 9 8 16 19 11 8 8 9 20 28 34 36 30
50 48 47 44 40 37 36 33 31 30 30 32 33 32 28 30 28 25 21 19 18 16 14 13 13 13 13 15 14 12 12 11 6 16 16 12 4 9 19 29 37 38 33
53 49 48 45 40 36 33 32 30 30 32 33 29 25 25 28 28 27 22 18 16 14 14 14 14 12 10 10 12 9 6 4 10 8 14 22 14 18 24 31 35 35 33
61 53 47 45 42 38 34 32 32 30 30 30 24 21 19 21 25 26 23 21 18 17 15 15 18 15 11 11 13 7 11 14 19 9 15 19 20 21 23 23 25 26 27
62 55 49 44 42 40 39 37 35 33 29 28 24 19 14 17 13 11 8 10 13 10 6 4 2 4 5 7 8 8 4 8 10 14 15 14 11 16 26 28 29 28 32
63 57 53 51 46 43 41 38 34 35 26 22 20 14 12 10 9 9 8 11 12 13 12 6 7 8 7 9 14 17 17 18 26 23 25 26 23 26 27 20 25 27 28
62 58 58 55 46 44 40 36 34 35 24 21 22 19 24 15 12 14 13 13 14 10 12 12 10 13 12 13 8 11 10 12 18 18 19 18 25 23 23 31 28 25 27
61 57 55 51 47 42 42 45 41 36 27 30 28 21 29 23 24 19 19 19 18 18 17 21 22 22 24 24 21 19 16 19 20 15 14 7 7 9 9 15 22 28 28
61 57 54 53 50 45 44 45 45 39 37 35 28 24 24 31 27 30 30 28 26 29 29 31 32 33 32 28 25 19 18 11 9 5 9 12 9 11 15 17 24 32 34
68 63 61 58 60 52 49 49 47 43 38 33 27 26 28 29 32 30 32 32 31 31 32 33 34 32 29 26 22 7 3 11 19 21 18 11 10 13 19 24 32 36 34
73 69 65 61 62 61 56 54 49 43 40 35 31 29 30 30 29 31 31 31 30 27 26 28 29 22 17 15 14 15 19 21 21 17 10 5 13 20 25 28 32 27 22
81 75 63 62 58 61 63 55 49 43 39 33 33 32 29 28 27 27 28 28 27 23 23 25 23 17 8 6 18 31 33 26 18 10 4 10 17 23 24 20 16 18 20
80 70 63 60 59 57 66 58 51 44 39 34 32 30 29 29 27 25 25 22 21 18 16 19 15 3 8 29 42 46 37 24 16 9 12 19 22 22 18 18 20 22 24
79 71 65 60 56 51 50 53 49 45 39 34 28 27 27 25 25 23 22 20 18 14 12 13 9 7 32 50 48 42 22 15 8 8 12 19 20 18 19 22 26 29 33
70 65 60 58 57 54 52 52 48 42 39 36 31 31 29 26 26 23 21 19 14 12 12 12 11 12 25 44 42 17 14 11 10 3 13 20 19 24 26 27 32 35 40
63 59 57 59 61 60 60 56 51 47 44 40 31 31 29 28 26 23 19 17 14 12 12 13 13 13 16 25 28 19 16 14 8 9 8 20 26 26 33 34 39 44 48
68 67 60 56 59 64 60 51 46 45 43 39 34 33 31 29 24 21 18 16 13 13 13 13 14 16 18 16 17 20 16 16 16 13 11 23 28 31 40 41 47 51 55
76 68 61 60 65 63 57 54 53 51 47 44 40 38 35 30 27 24 20 17 16 15 16 17 17 18 20 21 21 22 19 18 24 22 21 23 26 30 41 47 52 56 58
Wind_Direction_500mb
158 143 148 144 138 131 128 119 116 112 108 111 106 104 104 105 100 100 96 97 97 94 100 105 112 113 112 116 116 112 104 100 95 88 85 80 78 88 93 85 85 84 83
145 141 147 144 137 132 125 118 117 113 110 108 105 110 108 115 116 105 94 93 107 109 110 109 110 112 118 123 120 113 109 107 104 92 88 72 69 70 86 76 82 85 87
141 143 146 142 134 129 123 121 117 112 110 108 108 108 115 115 118 116 107 94 101 117 115 112 113 117 123 125 119 114 110 107 99 88 75 67 58 51 50 60 68 71 76
142 144 141 137 132 127 123 119 115 111 107 107 112 110 109 112 117 117 102 89 100 111 109 112 112 115 121 121 118 112 101 87 75 77 71 62 50 43 39 44 49 53 56
142 143 139 136 133 129 126 121 117 114 110 108 111 112 112 112 111 112 101 101 107 112 110 111 110 115 121 120 114 102 86 71 74 68 59 58 48 40 36 39 43 45 45
141 142 140 137 133 129 126 120 112 109 109 105 107 105 108 113 117 113 109 111 110 108 107 106 107 111 120 121 116 107 95 77 81 50 57 63 51 40 31 29 27 24 20
142 142 141 138 134 131 128 121 113 110 109 109 104 101 103 105 106 108 113 119 119 118 115 111 113 116 122 127 123 113 93 78 81 66 63 52 56 36 24 14 11 10 6
143 142 142 141 138 134 129 124 117 113 108 107 107 104 101 103 106 110 117 122 123 120 117 113 111 113 117 120 124 128 89 57 62 40 26 340 25 18 14 8 357 348 346
145 143 143 142 140 137 132 126 120 113 109 107 105 104 103 103 103 108 112 116 118 117 111 103 98 95 94 95 101 148 147 114 54 46 4 282 281 343 4 4 357 346 333
149 147 144 142 140 137 135 132 128 121 115 111 106 102 98 102 94 97 103 108 114 114 109 102 95 93 97 104 83 79 154 176 46 30 31 18 344 321 355 354 352 348 338
156 154 150 145 141 138 135 133 130 126 124 118 109 104 96 98 84 83 86 92 91 90 82 68 65 64 73 76 32 59 65 224 239 8 4 358 299 322 347 346 352 348 351
160 159 155 150 144 139 137 134 129 125 126 128 113 119 100 96 101 90 85 82 86 92 92 95 97 90 95 41 39 12 7 6 20 314 337 345 345 334 319 305 314 315 315
164 162 158 153 145 142 136 134 133 132 127 145 138 134 133 122 128 107 92 93 94 111 117 109 60 312 240 306 333 325 331 322 346 345 308 318 309 296 283 292 294 297 294
168 166 159 155 151 147 146 142 138 143 148 158 159 151 181 150 155 169 186 179 192 205 206 261 238 258 260 284 272 305 285 270 264 275 287 274 297 288 287 292 286 286 290
172 167 164 165 161 163 160 161 162 165 166 161 161 181 182 197 183 204 203 195 215 218 214 203 239 250 250 249 238 247 270 276 281 282 286 300 292 287 290 301 316 326 321
180 176 171 174 172 176 174 172 184 181 182 183 193 203 208 201 200 197 203 218 231 233 240 241 253 254 257 266 274 280 286 285 289 299 295 299 306 331 6 2 351 342 340
188 179 176 180 180 178 178 181 186 191 187 193 211 230 220 216 218 224 229 244 242 249 259 263 266 268 269 270 275 293 296 302 288 266 142 118 92 47 359 359 343 328 320
181 175 174 185 185 184 184 183 190 194 201 215 227 225 213 216 220 227 233 244 250 260 260 261 262 264 264 263 257 263 226 129 128 129 127 101 48 9 348 344 325 317 314
186 182 183 187 190 194 190 191 198 207 214 221 223 215 212 218 228 235 240 243 250 254 258 263 269 270 267 260 241 200 161 146 138 127 116 39 360 352 350 340 325 319 327
188 187 191 191 198 200 201 201 206 210 215 219 219 220 222 229 237 242 248 250 250 253 262 265 267 275 281 188 160 152 149 144 144 144 71 12 355 351 349 343 351 8 7
185 190 195 197 200 204 205 205 207 212 217 221 222 227 232 238 240 240 242 241 249 257 257 260 264 232 135 144 143 136 132 137 139 97 32 9 4 0 3 8 11 16 15
188 193 196 204 211 212 210 210 211 214 214 218 220 230 231 232 236 234 236 243 250 258 241 236 230 158 144 152 148 146 134 134 130 69 17 4 8 17 26 32 29 17 9
193 197 203 211 214 214 209 210 206 206 209 213 221 227 216 215 221 226 234 246 244 231 218 212 197 157 146 173 171 174 168 184 187 190 41 21 40 42 48 37 27 20 15
201 209 213 219 218 213 210 209 215 218 211 205 209 217 213 209 213 220 226 229 221 209 195 185 159 148 139 141 150 135 144 134 150 164 85 53 54 55 41 38 30 23 17
211 212 217 222 216 206 208 206 210 208 201 200 206 214 207 207 208 210 212 210 198 187 171 156 146 145 141 132 128 123 115 96 96 81 80 69 57 52 40 33 28 22 18
212 214 220 220 203 199 197 201 206 201 208 204 204 207 203 204 203 202 198 191 180 175 155 156 154 143 126 121 114 114 113 99 79 68 59 60 64 52 43 33 26 22 16
Wind_Speed_850mb
44 39 30 27 27 30 34 31 30 28 29 27 30 26 30 34 35 40 39 33 28 27 27 27 25 27 29 27 27 28 28 29 27 25 21 20 20 21 24 22 22 21 21
47 39 32 30 35 37 36 33 32 28 27 26 25 28 29 28 28 27 27 27 25 23 28 30 30 31 32 34 31 30 32 33 35 31 29 26 23 20 19 19 18 17 18
50 41 38 38 42 40 37 35 31 27 25 25 25 24 28 27 25 26 22 23 23 25 33 34 35 35 36 35 34 36 34 33 29 29 28 28 25 18 16 17 16 15 15
49 45 44 44 46 42 37 34 31 28 26 25 29 25 24 22 25 25 22 22 26 30 34 35 38 39 40 42 40 35 31 26 22 21 23 24 27 21 16 17 16 13 10
52 48 48 48 47 44 37 33 32 31 28 28 28 27 25 27 24 23 24 23 31 35 36 37 38 40 41 37 33 30 28 22 15 16 22 21 26 22 17 16 14 12 10
55 51 49 47 46 42 36 33 31 31 30 28 28 28 25 30 31 27 27 30 34 34 35 36 37 35 35 32 29 26 20 17 6 12 18 21 26 23 21 19 17 17 17
59 55 50 45 42 41 37 33 31 31 32 31 30 28 27 27 27 28 29 32 33 33 32 31 31 31 31 29 25 19 17 17 9 3 7 9 16 21 27 27 24 20 18
59 56 52 46 41 37 35 33 31 30 31 32 32 32 30 28 28 27 27 29 30 28 26 26 26 25 25 22 17 15 13 13 21 20 10 6 8 12 24 30 27 25 22
52 52 49 46 42 38 34 31 30 29 30 31 32 32 31 30 29 26 24 23 22 21 19 19 18 18 19 18 17 14 9 8 16 19 11 8 8 9 20 28 34 36 30
50 48 47 44 40 37 36 33 31 30 30 32 33 32 28 30 28 25 21 19 18 16 14 13 13 13 13 15 14 12 12 11 6 16 16 12 4 9 19 29 37 38 33
53 49 48 45 40 36 33 32 30 30 32 33 29 25 25 28 28 27 22 18 16 14 14 14 14 12 10 10 12 9 6 4 10 8 14 22 14 18 24 31 35 35 33
61 53 47 45 42 38 34 32 32 30 30 30 24 21 19 21 25 26 23 21 18 17 15 15 18 15 11 11 13 7 11 14 19 9 15 19 20 21 23 23 25 26 27
62 55 49 44 42 40 39 37 35 33 29 28 24 19 14 17 13 11 8 10 13 10 6 4 2 4 5 7 8 8 4 8 10 14 15 14 11 16 26 28 29 28 32
63 57 53 51 46 43 41 38 34 35 26 22 20 14 12 10 9 9 8 11 12 13 12 6 7 8 7 9 14 17 17 18 26 23 25 26 23 26 27 20 25 27 28
62 58 58 55 46 44 40 36 34 35 24 21 22 19 24 15 12 14 13 13 14 10 12 12 10 13 12 13 8 11 10 12 18 18 19 18 25 23 23 31 28 25 27
61 57 55 51 47 42 42 45 41 36 27 30 28 21 29 23 24 19 19 19 18 18 17 21 22 22 24 24 21 19 16 19 20 15 14 7 7 9 9 15 22 28 28
61 57 54 53 50 45 44 45 45 39 37 35 28 24 24 31 27 30 30 28 26 29 29 31 32 33 32 28 25 19 18 11 9 5 9 12 9 11 15 17 24 32 34
68 63 61 58 60 52 49 49 47 43 38 33 27 26 28 29 32 30 32 32 31 31 32 33 34 32 29 26 22 7 3 11 19 21 18 11 10 13 19 24 32 36 34
73 69 65 61 62 61 56 54 49 43 40 35 31 29 30 30 29 31 31 31 30 27 26 28 29 22 17 15 14 15 19 21 21 17 10 5 13 20 25 28 32 27 22
81 75 63 62 58 61 63 55 49 43 39 33 33 32 29 28 27 27 28 28 27 23 23 25 23 17 8 6 18 31 33 26 18 10 4 10 17 23 24 20 16 18 20
80 70 63 60 59 57 66 58 51 44 39 34 32 30 29 29 27 25 25 22 21 18 16 19 15 3 8 29 42 46 37 24 16 9 12 19 22 22 18 18 20 22 24
79 71 65 60 56 51 50 53 49 45 39 34 28 27 27 25 25 23 22 20 18 14 12 13 9 7 32 50 48 42 22 15 8 8 12 19 20 18 19 22 26 29 33
70 65 60 58 57 54 52 52 48 42 39 36 31 31 29 26 26 23 21 19 14 12 12 12 11 12 25 44 42 17 14 11 10 3 13 20 19 24 26 27 32 35 40
63 59 57 59 61 60 60 56 51 47 44 40 31 31 29 28 26 23 19 17 14 12 12 13 13 13 16 25 28 19 16 14 8 9 8 20 26 26 33 34 39 44 48
68 67 60 56 59 64 60 51 46 45 43 39 34 33 31 29 24 21 18 16 13 13 13 13 14 16 18 16 17 20 16 16 16 13 11 23 28 31 40 41 47 51 55
76 68 61 60 65 63 57 54 53 51 47 44 40 38 35 30 27 24 20 17 16 15 16 17 17 18 20 21 21 22 19 18 24 22 21 23 26 30 41 47 52 56 58
Wind_Direction_850mb
158 143 148 144 138 131 128 119 116 112 108 111 106 104 104 105 100 100 96 97 97 94 100 105 112 113 112 116 116 112 104 100 95 88 85 80 78 88 93 85 85 84 83
145 141 147 144 137 132 125 118 117 113 110 108 105 110 108 115 116 105 94 93 107 109 110 109 110 112 118 123 120 113 109 107 104 92 88 72 69 70 86 76 82 85 87
141 143 146 142 134 129 123 121 117 112 110 108 108 108 115 115 118 116 107 94 101 117 115 112 113 117 123 125 119 114 110 107 99 88 75 67 58 51 50 60 68 71 76
142 144 141 137 132 127 123 119 115 111 107 107 112 110 109 112 117 117 102 89 100 111 109 112 112 115 121 121 118 112 101 87 75 77 71 62 50 43 39 44 49 53 56
142 143 139 136 133 129 126 121 117 114 110 108 111 112 112 112 111 112 101 101 107 112 110 111 110 115 121 120 114 102 86 71 74 68 59 58 48 40 36 39 43 45 45
141 142 140 137 133 129 126 120 112 109 109 105 107 105 108 113 117 113 109 111 110 108 107 106 107 111 120 121 116 107 95 77 81 50 57 63 51 40 31 29 27 24 20
142 142 141 138 134 131 128 121 113 110 109 109 104 101 103 105 106 108 113 119 119 118 115 111 113 116 122 127 123 113 93 78 81 66 63 52 56 36 24 14 11 10 6
143 142 142 141 138 134 129 124 117 113 108 107 107 104 101 103 106 110 117 122 123 120 117 113 111 113 117 120 124 128 89 57 62 40 26 340 25 18 14 8 357 348 346
145 143 143 142 140 137 132 126 120 113 109 107 105 104 103 103 103 108 112 116 118 117 111 103 98 95 94 95 101 148 147 114 54 46 4 282 281 343 4 4 357 346 333
149 147 144 142 140 137 135 132 128 121 115 111 106 102 98 102 94 97 103 108 114 114 109 102 95 93 97 104 83 79 154 176 46 30 31 18 344 321 355 354 352 348 338
156 154 150 145 141 138 135 133 130 126 124 118 109 104 96 98 84 83 86 92 91 90 82 68 65 64 73 76 32 59 65 224 239 8 4 358 299 322 347 346 352 348 351
160 159 155 150 144 139 137 134 129 125 126 128 113 119 100 96 101 90 85 82 86 92 92 95 97 90 95 41 39 12 7 6 20 314 337 345 345 334 319 305 314 315 315
164 162 158 153 145 142 136 134 133 132 127 145 138 134 133 122 128 107 92 93 94 111 117 109 60 312 240 306 333 325 331 322 346 345 308 318 309 296 283 292 294 297 294
168 166 159 155 151 147 146 142 138 143 148 158 159 151 181 150 155 169 186 179 192 205 206 261 238 258 260 284 272 305 285 270 264 275 287 274 297 288 287 292 286 286 290
172 167 164 165 161 163 160 161 162 165 166 161 161 181 182 197 183 204 203 195 215 218 214 203 239 250 250 249 238 247 270 276 281 282 286 300 292 287 290 301 316 326 321
180 176 171 174 172 176 174 172 184 181 182 183 193 203 208 201 200 197 203 218 231 233 240 241 253 254 257 266 274 280 286 285 289 299 295 299 306 331 6 2 351 342 340
188 179 176 180 180 178 178 181 186 191 187 193 211 230 220 216 218 224 229 244 242 249 259 263 266 268 269 270 275 293 296 302 288 266 142 118 92 47 359 359 343 328 320
181 175 174 185 185 184 184 183 190 194 201 215 227 225 213 216 220 227 233 244 250 260 260 261 262 264 264 263 257 263 226 129 128 129 127 101 48 9 348 344 325 317 314
186 182 183 187 190 194 190 191 198 207 214 221 223 215 212 218 228 235 240 243 250 254 258 263 269 270 267 260 241 200 161 146 138 127 116 39 360 352 350 340 325 319 327
188 187 191 191 198 200 201 201 206 210 215 219 219 220 222 229 237 242 248 250 250 253 262 265 267 275 281 188 160 152 149 144 144 144 71 12 355 351 349 343 351 8 7
185 190 195 197 200 204 205 205 207 212 217 221 222 227 232 238 240 240 242 241 249 257 257 260 264 232 135 144 143 136 132 137 139 97 32 9 4 0 3 8 11 16 15
188 193 196 204 211 212 210 210 211 214 214 218 220 230 231 232 236 234 236 243 250 258 241 236 230 158 144 152 148 146 134 134 130 69 17 4 8 17 26 32 29 17 9
193 197 203 211 214 214 209 210 206 206 209 213 221 227 216 215 221 226 234 246 244 231 218 212 197 157 146 173 171 174 168 184 187 190 41 21 40 42 48 37 27 20 15
201 209 213 219 218 213 210 209 215 218 211 205 209 217 213 209 213 220 226 229 221 209 195 185 159 148 139 141 150 135 144 134 150 164 85 53 54 55 41 38 30 23 17
211 212 217 222 216 206 208 206 210 208 201 200 206 214 207 207 208 210 212 210 198 187 171 156 146 145 141 132 128 123 115 96 96 81 80 69 57 52 40 33 28 22 18
212 214 220 220 203 199 197 201 206 201 208 204 204 207 203 204 203 202 198 191 180 175 155 156 154 143 126 121 114 114 113 99 79 68 59 60 64 52 43 33 26 22 16